This is the latest recevied weather packets stored in our database for station/object KC9GSD. If no packets are shown the sender has not sent any weather packets the latest 10 day(s).
| Time | Temp. | Humidity | Pressure | Rain* | Wind** | Luminosity | Snow |
|---|---|---|---|---|---|---|---|
| 1777700370 | 13.33° C | 65% | 1014.2 hPa | 0 mm | - | 0 W/m² | - |
| 1777700066 | 13.33° C | 64% | 1014 hPa | 0 mm | - | 0 W/m² | - |
| 1777699764 | 13.89° C | 65% | 1014.1 hPa | 0 mm | - | 0 W/m² | - |
| 1777699462 | 13.89° C | 65% | 1013.9 hPa | 0 mm | - | 0 W/m² | - |
| 1777699160 | 13.89° C | 67% | 1014 hPa | 0 mm | - | 0 W/m² | - |
| 1777698858 | 13.89° C | 68% | 1013.9 hPa | 0 mm | - | 0 W/m² | - |
| 1777698555 | 13.89° C | 69% | 1013.9 hPa | 0 mm | - | 0 W/m² | - |
| 1777698251 | 13.89° C | 70% | 1013.8 hPa | 0 mm | - | 0 W/m² | - |
| 1777697948 | 13.89° C | 73% | 1013.5 hPa | 0 mm | - | 0 W/m² | - |
| 1777697645 | 13.89° C | 73% | 1013.3 hPa | 0 mm | - | 0 W/m² | - |
| 1777697342 | 13.89° C | 74% | 1013.2 hPa | 0 mm | - | 0 W/m² | - |
| 1777697038 | 13.89° C | 74% | 1013.5 hPa | 0 mm | - | 0 W/m² | - |
| 1777696735 | 14.44° C | 70% | 1013.3 hPa | 0 mm | - | 0 W/m² | - |
| 1777696433 | 14.44° C | 70% | 1013.4 hPa | 0 mm | - | 0 W/m² | - |
| 1777696132 | 14.44° C | 70% | 1013.4 hPa | 0 mm | - | 0 W/m² | - |
| 1777695830 | 14.44° C | 72% | 1013.7 hPa | 0 mm | - | 0 W/m² | - |
| 1777695527 | 14.44° C | 73% | 1013.4 hPa | 0 mm | - | 0 W/m² | - |
| 1777695224 | 14.44° C | 74% | 1013.4 hPa | 0 mm | - | 0 W/m² | - |
| 1777694921 | 13.89° C | 75% | 1013.3 hPa | 0 mm | - | 0 W/m² | - |
| 1777694618 | 13.89° C | 76% | 1013.2 hPa | 0 mm | - | 0 W/m² | - |
| 1777694314 | 13.89° C | 78% | 1013.5 hPa | 0 mm | - | 0 W/m² | - |
| 1777694011 | 13.89° C | 77% | 1013.5 hPa | 0 mm | - | 0 W/m² | - |
| 1777693708 | 13.89° C | 80% | 1013.5 hPa | 0 mm | - | 0 W/m² | - |
| 1777693407 | 13.33° C | 80% | 1013.7 hPa | 0 mm | - | 0 W/m² | - |
| 1777693105 | 13.33° C | 81% | 1013.7 hPa | 0 mm | - | 0 W/m² | - |
* Rain latest hour (hover to see other rain measurements)
** Current wind speed in m/s (hover to see current wind gust speed)